[[{"header":{"parameterUnit":"m.s-1","parameterCategory":1,"la1":30.2992,"la2":30.254,"lo1":-89.0895,"lo2":-89.0443,"dy":0.0025,"dx":0.0025,"nx":19,"ny":19,"refTime":"2026-03-10T03:00:00:Z","depth":0,"parameterNumber":2,"parameterNumberName":"U-component_of_WINDS"},"data":[0,0,0,-2.3937,-2.3938,-2.3986,-2.3986,-2.4056,-2.4057,0,0,0,0,0,0,0,0,0,0,0,-2.3928,-2.3929,-2.3937,-2.3938,-2.3986,-2.3986,-2.4056,-2.4057,0,0,0,0,0,0,0,0,0,0,0,-2.3928,-2.3928,-2.3929,-2.3938,-2.3986,-2.3986,-2.4056,-2.4017,0,0,0,0,0,0,0,0,0,0,-2.3969,-2.3965,-2.3928,-2.3929,-2.3939,-2.3986,-2.3986,-2.4015,-2.4019,-2.4038,0,-2.4057,0,-2.4058,-2.4062,-2.4063,0,0,0,-2.3934,-2.3962,-2.397,-2.3929,-2.3939,-2.3986,-2.3963,-2.4017,-2.4022,-2.4044,-2.4058,-2.406,-2.4059,-2.4063,-2.4063,-2.4187,-2.4187,0,0,-2.3932,-2.3939,-2.3967,-2.3974,-2.3967,-2.3962,-2.3965,-2.402,-2.4035,-2.4058,-2.4062,-2.406,-2.4063,-2.4064,-2.4186,-2.4187,0,0,0,-2.3927,-2.3938,-2.3944,-2.3971,-2.3979,-2.3963,-2.3967,-2.4032,-2.4034,-2.4062,-2.4061,-2.4064,-2.4065,-2.4185,-2.4186,-2.423,0,0,0,-2.3925,-2.3935,-2.3943,-2.3949,-2.3978,-2.4006,-2.3978,-2.403,-2.4036,-2.4061,-2.4064,-2.4065,-2.4184,-2.4186,-2.4227,-2.4249,0,0,0,-2.3923,-2.3934,-2.3943,-2.3949,-2.397,-2.4005,-2.401,-2.4031,-2.4036,-2.4063,-2.4066,-2.4184,-2.4186,-2.4225,-2.4245,-2.4283,0,0,0,-2.3923,-2.3982,-2.3944,-2.401,-2.397,-2.4033,-2.4009,-2.4056,-2.4084,-2.4064,-2.4184,-2.4186,-2.4224,-2.4242,-2.428,-2.4316,-2.4332,0,0,-2.4002,-2.3992,-2.403,-2.3997,-2.4069,-2.4025,-2.4103,-2.4122,-2.4118,-2.4164,-2.4167,-2.4228,-2.4245,-2.4283,-2.4421,-2.4433,0,0,0,-2.4057,-2.4084,-2.4102,-2.4129,-2.4145,-2.416,-2.4166,-2.4173,-2.4212,-2.4143,-2.4253,-2.4263,-2.4285,-2.4301,-2.4312,-2.433,-2.4195,-2.4194,-2.4194,-2.4178,-2.4169,-2.4231,-2.4229,-2.4256,-2.4262,-2.4283,-2.4294,-2.4277,-2.4304,-2.4317,-2.4402,-2.4421,-2.4429,-2.4448,-2.4336,-2.4337,-2.4337,-2.4337,-2.429,-2.4327,-2.4305,-2.4357,-2.4348,-2.4391,-2.44,-2.4387,-2.4427,-2.4391,-2.441,-2.437,-2.4443,-2.4459,-2.434,-2.4339,-2.4339,-2.4339,-2.4339,-2.4367,-2.4383,-2.4391,-2.443,-2.4461,-2.4457,-2.4496,-2.4487,-2.4479,-2.4498,-2.451,-2.4509,-2.4506,-2.4505,-2.4505,-2.4505,-2.4505,-2.4506,-2.4506,-2.4442,-2.445,-2.4483,-2.4506,-2.4523,-2.4543,-2.4551,-2.4567,-2.4583,-2.4573,-2.4573,-2.4554,-2.4453,-2.4426,-2.451,-2.451,-2.4509,-2.4509,-2.4508,-2.4556,-2.4529,-2.4581,-2.4598,-2.4624,-2.4655,-2.4644,-2.4677,-2.469,-2.4709,-2.4687,-2.4614,-2.4603,-2.4594,-2.4572,-2.4689,-2.4689,-2.4689,-2.4689,-2.462,-2.4614,-2.4664,-2.4692,-2.4717,-2.4713,-2.4771,-2.4779,-2.4782,-2.4789,-2.4772,-2.4743,-2.4734,-2.4728,-2.4717,-2.4696,-2.4841,-2.4841,-2.4842,-2.4689,-2.4685,-2.4736,-2.4739,-2.4759,-2.4776,-2.4831,-2.4864,-2.4862,-2.4848,-2.4794,-2.4788,-2.4741,-2.4726,-2.4708,-2.469,-2.4652,0,0]},{"header":{"parameterUnit":"m.s-1","parameterCategory":1,"la1":30.2992,"la2":30.254,"lo1":-89.0895,"lo2":-89.0443,"dy":0.0025,"dx":0.0025,"nx":19,"ny":19,"refTime":"2026-03-10T03:00:00:Z","depth":0,"parameterNumber":3,"parameterNumberName":"V-component_of_WINDS"},"data":[0,0,0,3.4536,3.4535,3.4488,3.4488,3.4422,3.4422,0,0,0,0,0,0,0,0,0,0,0,3.4545,3.4544,3.4536,3.4535,3.4488,3.4488,3.4423,3.4422,0,0,0,0,0,0,0,0,0,0,0,3.4545,3.4544,3.4544,3.4534,3.4488,3.4488,3.4423,3.446,0,0,0,0,0,0,0,0,0,0,3.4506,3.4509,3.4545,3.4544,3.4534,3.4488,3.4488,3.4462,3.4458,3.4441,0,3.4424,0,3.4422,3.4417,3.4417,0,0,0,3.4538,3.4513,3.4505,3.4543,3.4534,3.4488,3.451,3.446,3.4455,3.4435,3.4423,3.4421,3.4421,3.4416,3.4416,3.431,3.4309,0,0,3.454,3.4533,3.4508,3.4502,3.4508,3.4511,3.4508,3.4457,3.4443,3.4423,3.4419,3.442,3.4416,3.4415,3.431,3.431,0,0,0,3.4546,3.4535,3.4529,3.4504,3.4497,3.451,3.4507,3.4445,3.4444,3.4418,3.4419,3.4416,3.4415,3.4311,3.431,3.4273,0,0,0,3.4547,3.4538,3.453,3.4525,3.4497,3.447,3.4496,3.4447,3.4442,3.4419,3.4416,3.4414,3.4312,3.4311,3.4276,3.4257,0,0,0,3.4549,3.4538,3.453,3.4524,3.4504,3.4471,3.4467,3.4446,3.4442,3.4417,3.4414,3.4312,3.4311,3.4278,3.426,3.423,0,0,0,3.4549,3.4494,3.4529,3.4469,3.4505,3.4448,3.4467,3.4425,3.4399,3.4415,3.4312,3.431,3.4279,3.4263,3.4232,3.4203,3.419,0,0,3.4476,3.4485,3.4451,3.4481,3.4417,3.4456,3.4387,3.4368,3.4371,3.4331,3.4328,3.4275,3.4261,3.423,3.4117,3.4107,0,0,0,3.4426,3.4401,3.4386,3.4362,3.4349,3.4337,3.433,3.4325,3.4291,3.4349,3.4255,3.4247,3.4229,3.4216,3.4207,3.4194,3.4303,3.4304,3.4304,3.4311,3.4322,3.4267,3.4273,3.425,3.4247,3.423,3.4223,3.4236,3.4214,3.4202,3.4133,3.4117,3.411,3.4096,3.4187,3.4186,3.4186,3.4186,3.4208,3.4176,3.4201,3.4157,3.417,3.4133,3.413,3.4142,3.4111,3.4141,3.4126,3.4159,3.4098,3.4087,3.4184,3.4184,3.4184,3.4185,3.4185,3.4135,3.4122,3.4118,3.4089,3.4066,3.4075,3.4046,3.4057,3.4067,3.4052,3.4043,3.4044,3.4048,3.4047,3.4047,3.4047,3.4046,3.4046,3.4046,3.4061,3.4058,3.4033,3.4019,3.4009,3.3996,3.3997,3.3987,3.3979,3.399,3.399,3.4009,3.409,3.4112,3.4042,3.4043,3.4043,3.4044,3.4044,3.3954,3.3982,3.3942,3.3932,3.392,3.3899,3.3915,3.3896,3.3889,3.3876,3.3899,3.3957,3.3966,3.3974,3.3992,3.3895,3.3895,3.3895,3.3895,3.3894,3.3901,3.3867,3.3851,3.3837,3.385,3.3808,3.3811,3.3817,3.3815,3.383,3.3855,3.3862,3.3867,3.3877,3.3894,3.3775,3.3775,3.3774,3.383,3.3838,3.3799,3.3808,3.3801,3.3795,3.3758,3.3741,3.3753,3.377,3.3814,3.3819,3.3859,3.3871,3.3886,3.3901,3.3932,0,0]}]]